User: anonymous   Login
Location: Indian Hills
(32.9760°N, 85.9450°W)
Time: 13:50:35
(UTC+00:00)
Language:

Cosmos 2263 Rocket - Orbit

View from above orbital plane
View from above orbital plane
View from above satellite
View from above satellite

Ground track
Ground track

The orbit data is extracted from the following two-line orbital elements,

1 22803U 93059B   20056.79251235 -.00000006  00000-0  20748-4 0  9990
2 22803  70.9927 336.6868 0018613 321.3984  38.5808 14.16820127367606
Epoch (UTC): 25 February 2020 19:01:13
Eccentricity: 0.0018613
inclination: 70.9927°
perigee height: 823 km
apogee height: 849 km
right ascension of ascending node: 336.6868°
argument of perigee: 321.3984°
revolutions per day: 14.16820127
mean anomaly at epoch: 38.5808°
orbit number at epoch: 36760

The dashed part of the orbit path shows where the satellite is in the earth's shadow,  

DLR